Wind_Speed
10 11 12 12 11 11 11 11 11 11 12 12 13 14 14 15 15 16 17 17 18 18 17 17 18 18 19 19 20 21 22 22 22 22 22 23 24 25 26 28 28 27 26 27 29 31 31 28 22 19 19 19 18 16 14 14 16 19 22 22 22 21 21 21 21 22 22 21 21
12 12 13 13 13 14 14 14 14 14 14 14 14 14 15 16 17 18 19 19 19 19 19 19 19 19 20 20 21 22 22 22 22 22 22 23 25 26 28 29 30 29 26 23 23 23 23 21 19 17 17 17 15 14 14 16 20 24 25 24 24 23 22 23 23 23 22 22 22
13 14 14 15 16 16 16 17 16 16 16 16 16 17 17 18 18 18 19 19 19 20 20 20 20 20 20 21 21 21 21 21 21 21 22 23 25 26 27 28 29 28 26 21 18 17 18 18 18 18 19 19 19 19 19 21 25 28 28 26 25 24 24 24 24 23 23 22 23
14 15 16 17 17 17 18 18 18 19 19 19 19 19 19 19 19 19 18 18 19 19 20 20 21 21 21 21 21 20 20 19 19 20 21 22 23 23 24 24 24 24 23 21 19 18 18 19 19 20 21 22 23 24 25 27 29 29 28 25 25 25 25 25 25 24 23 23 23
12 13 14 15 16 17 17 18 18 19 20 20 20 20 20 19 19 19 19 18 19 19 20 20 21 21 21 20 20 19 18 17 18 18 19 19 20 21 21 20 20 20 20 20 20 20 21 21 22 22 23 24 25 27 28 30 30 28 26 24 25 25 26 25 25 24 23 23 23
10 11 12 12 13 14 15 16 17 18 19 19 20 20 20 20 20 20 19 19 19 20 20 20 20 20 20 19 18 17 17 16 16 16 17 17 17 18 18 18 18 19 19 20 21 22 23 23 24 24 25 27 28 29 30 30 28 26 25 24 25 25 25 25 24 24 23 24 24
9 10 10 11 12 13 14 15 16 18 19 19 20 20 21 21 21 21 21 21 21 21 21 20 20 20 19 18 17 17 16 16 16 16 16 16 16 16 16 17 17 18 19 21 22 24 25 25 26 27 28 29 29 29 29 28 26 25 25 26 25 25 24 24 24 24 24 24 25
8 9 10 10 11 12 13 14 16 17 18 19 20 20 21 22 23 23 23 23 23 22 22 21 20 19 19 18 17 17 16 16 16 16 17 17 17 16 16 16 16 17 18 20 22 25 26 27 28 28 29 29 28 27 26 25 25 26 26 26 26 25 24 24 24 24 24 25 26
8 8 9 10 11 12 13 13 14 16 17 18 19 19 20 21 23 24 24 25 25 24 24 23 22 20 19 19 18 18 18 17 17 17 18 18 18 18 17 17 17 17 18 19 21 23 25 27 28 28 27 26 24 23 23 24 26 27 27 26 25 24 23 24 24 25 25 26 26
9 9 10 11 11 12 13 13 14 15 16 16 17 18 19 20 21 22 24 25 25 26 26 25 24 22 21 20 20 21 21 20 20 20 20 20 20 20 19 19 18 18 19 20 21 22 23 24 25 26 25 24 22 21 21 23 26 27 27 26 25 24 24 24 25 25 26 26 26
10 11 12 12 13 13 14 14 15 15 16 16 16 17 17 18 20 21 22 24 25 26 26 26 26 25 24 23 23 23 24 24 24 24 23 23 23 22 22 22 21 21 22 22 23 23 23 23 23 24 24 23 22 21 21 22 24 26 26 26 25 25 26 26 26 27 27 27 26
11 12 13 13 14 14 15 15 16 16 16 17 17 17 17 18 18 19 21 22 24 25 26 27 27 27 27 26 26 26 26 27 27 27 27 27 27 27 27 27 26 26 26 26 26 26 25 25 25 25 25 25 25 25 25 25 26 28 28 28 27 28 28 28 28 28 27 26 27
11 12 13 14 15 15 16 17 17 18 18 18 18 18 18 18 18 19 19 21 22 24 26 27 28 29 29 29 29 28 28 28 29 29 29 30 30 30 31 31 30 30 30 30 30 30 29 29 28 28 28 29 29 30 30 31 32 32 32 31 31 30 30 30 30 29 27 27 27
12 12 13 14 15 16 16 17 18 18 19 20 20 20 20 20 20 19 19 20 21 22 24 26 28 29 30 30 30 30 30 30 30 30 30 30 31 31 32 32 32 32 32 33 33 33 33 32 31 30 31 31 32 32 33 33 33 33 33 33 32 32 32 32 31 29 28 28 28
13 13 14 14 15 16 16 17 18 19 19 20 21 22 22 22 22 21 21 21 20 21 22 24 27 29 30 31 31 31 31 31 31 31 30 30 30 30 30 30 31 31 32 32 33 34 34 34 33 32 32 32 32 32 33 33 33 33 34 34 33 34 34 34 32 31 29 29 29
14 14 15 15 16 16 17 17 18 18 19 20 21 22 23 24 24 23 23 22 22 21 21 22 25 27 29 31 32 32 32 32 32 31 31 30 29 28 28 27 28 28 29 29 31 32 32 32 32 32 31 32 32 32 32 32 33 33 34 35 35 35 35 35 33 31 30 30 30
15 16 16 17 17 17 17 18 18 19 19 19 20 21 22 24 24 25 25 24 24 23 22 22 23 25 27 30 32 32 33 32 32 32 31 30 29 28 26 26 25 25 26 26 27 28 29 30 30 31 31 31 31 32 32 32 33 34 35 35 36 36 36 35 34 32 31 30 30
17 17 18 18 18 18 18 19 19 19 19 20 20 21 22 23 24 25 25 26 26 25 24 23 23 24 26 28 31 33 33 33 33 32 30 29 28 27 26 26 25 25 25 26 26 27 28 28 29 30 31 31 32 32 33 33 34 35 35 35 35 35 35 35 33 32 31 31 31
19 19 19 19 19 19 19 19 20 20 20 20 20 21 21 22 23 24 25 26 26 26 26 25 25 24 25 26 29 32 34 34 33 32 30 29 28 28 27 27 26 26 26 26 27 27 28 29 30 30 31 32 33 33 34 34 35 35 35 35 35 35 34 34 33 32 31 31 31
20 20 20 20 20 20 20 20 20 20 21 21 21 21 21 22 22 23 25 26 26 27 27 27 26 25 25 26 28 31 33 34 34 32 30 29 28 27 27 27 27 27 27 27 28 28 29 30 30 31 32 33 33 34 35 35 35 35 35 35 34 34 33 33 32 32 32 31 31
21 21 21 21 21 21 21 21 21 21 21 21 21 22 22 22 22 23 24 25 26 27 27 28 27 27 26 26 28 30 32 33 34 33 31 29 28 27 27 27 27 27 28 28 28 29 30 30 31 32 32 33 34 34 34 35 35 35 34 34 33 33 32 32 32 32 32 32 32
21 22 22 22 22 22 21 21 21 21 21 21 22 22 22 23 23 23 24 25 26 27 28 28 28 28 28 27 28 30 31 33 34 33 32 30 29 28 28 28 28 28 28 28 29 29 30 31 31 32 32 33 33 34 34 34 34 34 33 33 32 32 32 32 32 32 32 32 32
21 21 22 22 22 22 22 22 22 22 22 22 22 22 22 23 23 24 24 25 26 27 27 28 28 28 28 28 29 30 31 33 34 34 33 31 30 29 29 29 29 29 29 29 30 30 31 31 31 32 32 32 33 33 33 33 33 33 32 32 32 32 32 32 32 32 32 32 31
21 21 21 21 21 22 22 22 22 22 23 23 23 23 23 23 24 24 25 25 26 27 27 28 29 29 29 29 29 30 31 33 33 33 33 31 30 30 29 29 29 29 30 30 31 31 31 31 31 31 31 32 32 32 32 32 32 32 32 32 32 32 32 32 32 32 32 31 31
21 21 21 21 22 22 22 23 23 23 24 24 24 24 24 24 24 24 25 25 26 27 28 28 29 30 30 30 30 31 32 33 33 33 32 32 31 30 30 30 30 30 31 31 31 31 31 30 30 30 31 31 31 32 32 32 32 31 31 31 32 32 32 32 32 31 31 31 30
22 22 22 23 23 23 23 24 24 24 25 25 25 25 25 25 25 25 25 26 26 27 28 29 30 30 31 31 31 32 32 33 33 33 33 32 31 30 30 30 30 30 31 31 30 30 29 29 29 30 30 30 31 31 31 31 31 31 31 31 31 31 31 31 30 30 30 30 30
25 25 25 25 25 25 26 26 26 26 27 27 27 27 27 27 27 26 26 26 27 27 28 29 30 31 32 32 32 33 33 34 34 34 33 33 32 31 30 30 30 30 30 30 29 28 28 28 28 29 29 29 30 30 30 30 30 30 30 30 31 30 30 30 29 29 29 29 29
29 29 29 29 29 29 29 29 29 30 30 30 30 30 30 29 29 28 28 27 27 27 28 29 30 31 32 33 34 34 34 34 34 34 34 33 33 32 31 31 30 30 29 28 27 27 26 26 27 27 27 27 28 28 29 29 29 29 30 30 29 29 29 29 28 28 28 28 28
31 32 32 32 32 32 33 33 33 33 33 33 33 32 32 31 31 30 30 29 28 28 28 29 30 31 32 34 34 35 34 34 35 35 35 34 33 33 32 31 30 30 29 28 27 26 26 25 25 25 25 25 26 26 27 27 28 28 28 28 28 28 28 27 27 27 26 26 26
32 33 34 34 34 35 35 35 36 36 36 36 36 35 35 34 33 32 32 31 30 29 29 29 29 30 32 34 35 35 35 35 35 35 35 35 34 33 33 32 31 30 29 28 27 26 26 25 25 24 24 24 24 24 25 25 26 26 27 27 27 26 26 26 25 25 25 25 26
32 33 34 34 35 35 36 36 37 37 38 38 38 37 37 36 36 35 34 33 32 31 30 29 30 30 31 33 35 36 36 36 36 36 36 35 35 34 33 32 31 31 30 28 27 26 26 25 25 24 23 23 23 23 24 24 24 25 25 25 25 25 24 24 24 24 24 25 25
31 32 32 33 34 34 35 36 36 37 38 38 39 39 39 38 38 37 36 35 34 32 31 30 30 30 31 32 34 36 37 38 37 37 36 36 35 34 33 33 32 31 30 29 28 27 27 26 25 25 24 24 24 24 24 24 24 24 24 24 24 23 23 23 23 24 24 24 24
30 30 31 32 32 33 34 34 35 36 37 37 38 38 39 39 39 38 37 36 35 34 33 32 31 31 31 31 33 35 37 38 39 38 37 36 35 35 34 33 33 32 31 30 29 28 28 27 26 26 26 25 25 25 25 24 24 24 23 23 23 23 23 23 23 23 23 24 24
29 30 30 31 31 32 32 33 34 34 35 36 37 38 38 39 39 39 38 38 37 36 35 34 33 32 31 31 32 34 36 38 39 39 38 37 36 35 35 35 34 33 32 31 30 29 29 28 28 27 27 27 27 27 26 26 25 24 24 23 23 22 22 23 23 23 23 23 24
29 30 30 31 31 31 32 32 33 33 34 35 36 36 37 38 38 38 38 38 38 37 36 35 34 33 33 32 32 33 35 38 39 40 40 39 38 37 36 36 35 34 33 32 31 30 30 29 29 28 28 28 28 28 28 27 27 26 25 24 24 23 23 23 23 23 23 23 23
30 31 31 32 32 32 32 33 33 33 34 34 35 36 36 37 37 38 38 38 38 38 37 37 36 35 34 34 33 34 35 37 39 40 41 40 39 38 38 37 36 35 34 33 32 31 31 30 30 30 29 29 30 30 30 29 28 27 26 25 24 24 23 23 24 24 23 23 23
32 32 32 33 33 33 33 33 33 34 34 34 35 35 36 36 37 37 37 37 38 38 38 37 37 36 36 35 35 34 35 36 38 40 41 41 40 40 39 38 37 36 35 34 33 32 32 31 31 30 30 30 31 31 31 30 29 28 27 26 25 25 24 24 24 24 24 23 22
33 33 33 34 34 34 34 34 34 34 34 35 35 35 35 36 36 37 37 37 37 38 38 38 37 37 37 36 36 35 35 35 37 39 40 41 41 41 40 39 38 37 36 35 34 33 32 32 32 31 31 31 31 31 31 31 30 30 29 27 26 25 25 25 25 25 24 23 22
34 34 34 34 34 35 35 35 35 35 35 35 35 35 36 36 36 37 37 37 37 37 38 38 38 37 37 37 37 37 36 36 36 37 39 41 42 41 41 40 39 38 37 36 35 34 33 33 32 32 32 32 32 32 32 32 31 30 30 28 27 26 26 26 25 25 24 23 22
34 34 34 35 35 35 35 35 35 35 35 35 36 36 36 36 36 37 37 37 37 37 37 37 37 37 37 37 37 37 37 37 37 37 39 40 42 42 41 41 40 39 38 37 36 35 34 34 33 32 32 32 32 32 32 32 32 31 30 29 28 27 27 27 26 25 24 23 22
35 35 35 35 35 35 35 35 35 36 35 35 35 36 36 36 36 37 37 37 37 37 37 37 37 37 37 37 37 38 38 38 37 37 38 40 41 42 42 42 41 40 39 38 37 36 35 35 34 33 32 32 32 32 32 32 32 31 31 30 29 29 28 28 27 26 25 24 23
Wind_Direction
219 221 224 228 231 235 240 245 249 250 250 250 249 249 250 252 253 254 255 256 256 254 252 249 248 249 250 252 255 257 260 262 262 259 254 250 248 250 252 254 254 248 240 233 234 237 241 243 243 243 245 250 253 255 254 250 251 257 264 268 269 269 268 269 269 269 270 271 273
224 226 229 233 238 242 246 249 250 251 252 254 257 258 259 259 260 261 263 266 268 268 267 264 260 256 254 254 255 258 261 263 264 262 258 253 250 250 251 253 255 253 248 240 235 235 236 236 234 235 239 243 245 244 242 242 248 255 260 265 266 267 266 267 268 269 271 274 278
228 229 232 236 241 245 250 253 254 255 256 257 259 260 261 261 261 262 265 269 272 275 275 274 271 267 264 261 260 261 262 264 264 263 260 257 254 251 251 251 252 253 252 247 239 233 230 227 225 224 225 227 229 229 231 238 248 255 260 263 264 265 266 267 268 269 271 275 278
233 233 233 236 239 244 248 253 256 257 258 258 258 259 259 259 260 261 264 268 271 274 277 278 278 276 272 267 264 263 262 262 262 261 259 257 253 249 245 244 244 247 249 248 244 236 228 223 221 220 219 220 221 223 228 238 249 258 263 264 265 266 268 269 270 270 272 273 275
246 244 243 243 245 247 249 252 255 257 258 258 257 256 256 257 258 260 263 265 269 273 277 280 281 279 275 270 264 260 258 257 257 255 253 251 247 243 240 237 237 240 242 242 238 233 227 224 222 221 220 221 223 227 234 243 252 260 265 266 267 268 270 271 272 273 274 275 275
265 265 264 264 263 263 263 264 264 265 265 264 261 259 258 257 258 259 260 263 267 271 274 277 279 279 276 269 262 255 250 249 248 246 243 240 240 240 240 240 239 239 239 237 234 231 228 226 225 225 226 227 230 235 241 248 255 261 264 265 266 268 271 274 276 277 278 278 277
286 285 284 283 282 281 280 279 278 277 277 275 272 270 267 265 263 262 262 263 265 267 270 272 275 276 274 268 259 250 244 240 238 236 233 232 233 237 241 245 246 245 244 242 240 237 235 233 233 234 234 236 239 242 247 251 256 259 261 263 265 268 273 276 279 281 281 280 279
305 303 300 298 296 294 292 289 288 286 285 283 282 279 277 274 272 269 268 267 266 266 266 267 269 271 270 265 256 248 242 237 234 232 231 231 233 236 240 243 246 248 249 249 247 245 243 241 240 240 240 241 243 245 248 251 254 257 259 262 266 270 274 277 279 280 280 279 278
312 309 307 306 304 302 300 298 296 294 292 290 288 286 283 281 279 277 275 272 270 268 267 265 264 264 264 261 255 249 245 241 238 237 237 238 240 241 241 240 241 243 246 249 249 249 247 246 245 244 243 242 241 244 247 252 255 258 261 264 268 271 273 274 274 275 275 275 275
307 306 304 303 302 301 300 299 298 298 297 295 294 292 289 286 283 281 279 277 275 272 269 267 264 261 259 257 254 251 249 248 246 245 245 246 247 247 246 244 242 242 244 247 249 250 249 248 247 246 246 245 244 245 250 256 260 263 265 267 269 269 269 268 268 269 269 270 273
302 300 299 298 297 296 296 295 295 295 294 295 294 294 292 290 287 285 282 280 277 275 272 270 267 262 259 256 253 252 251 251 252 252 252 252 253 253 254 253 251 249 247 248 250 250 249 248 246 246 247 248 249 251 255 259 262 265 267 267 266 266 265 265 266 266 268 270 274
300 298 297 296 295 294 294 293 293 292 292 291 292 292 292 292 290 288 285 283 280 278 275 273 270 266 262 258 255 253 253 254 255 256 256 257 257 258 259 259 258 257 254 251 250 250 249 247 247 247 247 248 249 251 253 256 259 261 262 262 261 261 261 261 262 264 266 269 272
306 303 301 300 298 297 296 295 294 293 292 292 291 291 291 291 291 290 289 287 284 281 278 275 272 269 266 262 259 257 256 256 257 258 259 259 259 259 260 260 260 259 257 255 252 250 249 249 250 251 253 253 252 252 253 254 255 257 259 259 259 259 258 258 258 259 261 264 267
319 315 312 309 306 304 301 300 298 296 295 294 293 292 292 291 291 290 290 290 288 285 282 278 275 272 270 267 264 261 259 259 259 259 260 260 261 261 261 260 260 259 258 256 254 252 251 252 253 255 257 258 258 258 257 257 257 258 259 260 260 260 259 257 256 257 258 262 265
329 326 322 319 316 313 310 306 303 301 299 297 295 294 293 293 292 291 290 290 289 287 284 281 278 275 272 269 266 264 262 261 260 260 260 261 262 262 263 262 261 259 258 256 255 254 253 254 255 257 259 260 260 261 261 261 260 260 261 261 260 260 259 258 257 257 259 262 265
333 330 328 325 322 320 317 313 310 307 303 300 298 296 295 294 293 292 291 290 289 288 286 283 280 277 274 271 268 266 264 262 261 260 261 261 262 263 264 264 263 261 259 257 256 255 255 255 256 258 259 260 261 262 262 262 263 262 262 262 261 260 259 258 258 259 261 264 266
332 330 328 326 325 323 321 318 316 313 310 306 302 298 296 294 294 293 292 291 290 289 287 285 282 278 275 272 269 266 264 263 261 261 260 261 261 262 262 263 262 261 260 259 258 257 257 257 257 258 259 260 261 262 263 263 263 264 263 263 262 261 260 260 260 262 263 265 266
330 328 327 326 325 323 322 320 319 316 314 311 307 303 299 296 294 293 292 291 290 289 288 286 283 280 276 273 270 267 265 263 262 261 260 260 260 260 260 261 261 261 260 260 259 259 259 259 259 260 260 261 262 263 263 264 264 264 264 263 263 262 261 261 262 264 265 266 267
327 326 325 324 324 323 322 320 319 318 316 315 312 308 304 300 296 293 291 290 289 289 288 287 285 282 278 274 271 268 266 264 262 261 260 260 260 260 260 260 261 261 261 261 261 261 261 260 261 261 262 262 263 263 264 264 264 264 264 263 263 262 262 263 264 265 266 266 267
323 323 322 322 322 321 321 320 319 318 317 316 314 312 309 304 299 295 292 290 288 287 286 286 285 284 281 277 272 268 265 264 262 261 261 261 261 261 261 262 262 262 263 263 263 262 262 262 262 262 263 263 263 264 264 264 264 264 264 263 263 263 263 264 264 265 266 266 267
320 320 320 319 319 319 319 319 318 318 317 316 316 314 312 308 304 299 295 291 288 286 285 285 285 284 282 279 273 268 265 263 261 260 260 260 261 262 263 264 264 264 264 264 264 264 264 263 263 263 263 263 264 264 264 264 264 264 264 264 264 264 264 265 265 265 266 266 266
316 316 316 316 316 316 316 316 316 316 316 315 315 314 313 311 308 303 298 294 290 287 285 284 283 283 281 279 274 269 264 262 260 259 258 259 260 262 263 264 265 265 265 265 265 265 265 265 264 264 264 264 264 264 264 264 264 264 264 264 265 265 265 265 266 266 266 266 266
312 312 312 312 313 313 313 313 314 314 314 314 314 314 313 313 311 307 303 298 293 289 286 284 282 281 279 277 273 268 264 260 258 257 256 257 259 260 262 264 265 266 266 266 266 266 266 265 265 265 265 265 265 265 265 264 264 264 264 265 265 266 266 266 266 267 267 266 265
308 308 308 308 309 310 310 311 311 312 312 312 312 312 313 313 312 310 306 302 297 292 288 284 282 279 277 275 271 267 263 259 257 255 254 255 256 258 260 262 263 264 265 266 265 266 266 266 267 267 266 266 266 265 265 265 264 264 264 264 264 264 265 266 266 266 266 265 263
304 304 304 304 305 306 307 308 309 309 310 310 311 311 311 312 312 311 309 306 302 296 290 285 281 278 275 273 270 266 262 258 256 254 253 253 254 255 257 259 261 262 263 264 264 265 266 267 267 267 267 266 266 265 265 264 263 263 262 262 262 262 263 263 264 264 263 263 262
301 301 301 301 301 302 303 304 305 306 307 308 309 309 309 310 310 310 310 309 305 300 294 287 282 277 274 271 269 265 262 258 256 254 253 252 252 253 255 257 258 260 261 262 263 265 266 267 267 266 265 265 264 263 262 262 261 261 260 260 260 260 261 261 261 261 261 261 261
299 298 298 298 298 298 299 300 300 301 303 304 305 306 306 307 308 308 308 308 307 303 297 290 284 278 274 271 267 264 261 259 256 253 252 251 252 253 254 256 257 259 260 261 262 264 265 265 265 264 264 263 262 261 260 260 259 259 258 258 258 258 258 259 259 259 260 260 261
297 297 296 296 296 296 296 296 297 297 298 299 300 301 302 303 304 305 305 306 306 304 300 295 288 281 275 271 268 265 262 259 256 254 252 251 251 252 254 255 257 258 259 260 261 262 263 263 263 262 262 261 260 259 258 257 257 256 256 256 256 256 256 256 257 258 258 259 260
296 296 296 296 295 295 295 295 295 295 296 296 297 298 298 299 300 300 301 302 302 302 300 297 291 284 278 273 269 266 263 260 256 254 252 252 252 252 253 255 256 258 259 259 260 260 260 260 261 260 260 259 258 257 256 255 254 254 254 254 254 254 255 255 256 257 258 259 260
298 297 297 297 297 296 296 296 296 296 295 295 295 295 296 296 297 297 297 298 298 298 298 296 292 287 281 276 271 267 264 260 257 254 253 252 252 253 253 255 256 257 258 258 258 258 258 258 258 259 259 258 257 255 254 253 252 252 253 253 253 254 254 255 256 257 258 259 260
300 300 299 299 298 298 298 298 297 297 296 296 295 295 295 295 295 295 295 295 295 295 295 294 292 288 284 279 274 269 265 262 258 255 253 252 252 252 253 254 256 257 257 257 256 256 256 256 256 256 257 257 256 255 254 253 253 253 253 253 254 255 255 256 257 258 258 259 261
302 302 301 301 300 299 299 299 298 298 298 297 296 296 295 294 294 293 293 292 292 292 292 291 290 288 286 281 276 271 267 263 260 257 254 252 252 252 252 253 255 255 256 255 255 254 254 254 255 255 255 255 255 255 255 255 255 255 255 255 256 256 257 257 258 258 259 260 261
303 303 302 301 301 300 300 299 299 298 298 298 297 297 296 295 294 293 292 291 290 290 289 288 287 286 285 282 277 273 269 265 262 259 256 253 251 251 251 252 253 254 254 254 253 253 253 253 253 254 254 255 255 256 256 257 257 257 257 257 257 258 258 258 259 259 259 260 261
303 303 302 302 301 301 300 300 299 299 298 298 297 297 296 296 295 294 292 291 290 289 288 287 286 285 283 281 277 273 270 266 263 260 257 254 251 250 250 251 251 252 253 253 253 252 252 252 253 253 254 255 255 256 257 257 258 258 258 258 259 259 259 258 258 258 258 259 260
304 303 302 302 301 301 300 300 299 299 298 298 297 297 297 296 296 295 294 292 290 289 287 286 285 284 283 281 278 274 270 267 263 260 258 255 252 250 249 250 250 251 252 252 252 252 252 252 252 253 254 254 255 256 257 257 257 258 258 259 259 259 259 258 257 256 256 256 258
304 303 302 301 301 300 300 300 299 299 298 298 297 297 297 296 296 295 295 293 292 289 287 285 284 283 282 281 279 276 272 268 264 261 258 255 253 250 249 249 249 250 250 251 251 252 252 252 253 253 253 254 254 255 255 256 257 257 258 258 258 258 258 257 255 254 254 254 255
303 302 301 301 300 300 299 299 299 298 298 297 297 297 296 296 296 295 295 294 293 291 288 286 284 282 281 281 280 278 275 270 265 261 258 256 253 251 250 249 249 249 250 250 251 252 252 253 253 253 253 253 253 253 254 255 255 256 257 257 257 257 256 255 253 252 252 252 252
302 301 300 299 299 299 299 298 298 298 298 297 297 297 296 296 296 295 295 294 293 291 289 287 285 283 281 281 280 279 277 273 268 263 259 256 254 252 250 249 249 249 249 250 251 252 253 253 253 253 253 253 253 252 253 253 254 254 255 256 256 255 254 252 251 251 250 249 249
301 300 299 298 298 298 298 297 297 297 297 297 297 296 296 296 295 295 294 294 293 291 290 288 286 284 282 281 280 279 278 275 271 266 261 257 254 252 251 250 249 249 249 249 250 251 252 253 253 253 253 253 252 252 252 252 252 253 253 254 254 253 252 251 250 249 248 246 244
300 299 298 298 297 297 297 297 296 296 296 296 296 296 296 296 296 295 294 294 293 291 290 288 286 284 283 281 280 279 278 276 273 269 264 259 255 252 250 249 249 248 248 248 249 250 251 252 253 253 252 252 252 252 251 251 251 251 251 252 252 251 250 249 248 247 245 243 239
300 299 298 298 297 297 296 296 296 296 296 296 296 296 296 296 296 295 295 294 293 292 290 289 287 285 283 281 279 278 277 276 274 271 267 262 257 253 250 249 248 248 247 247 248 249 250 251 252 252 251 251 251 251 251 250 250 250 250 250 250 249 248 247 246 244 242 239 235
Height
1511 1511 1511 1511 1511 1511 1511 1511 1511 1511 1511 1511 1511 1511 1510 1510 1509 1508 1507 1506 1506 1505 1505 1504 1504 1504 1503 1503 1503 1503 1503 1502 1502 1502 1502 1502 1502 1503 1503 1503 1504 1504 1504 1505 1506 1506 1507 1507 1507 1508 1509 1510 1510 1510 1509 1510 1510 1511 1511 1511 1511 1511 1511 1511 1511 1511 1512 1512 1512
1510 1510 1511 1511 1511 1510 1510 1510 1510 1510 1510 1510 1510 1509 1509 1508 1507 1506 1506 1506 1505 1504 1504 1503 1503 1502 1502 1502 1502 1501 1501 1501 1501 1500 1500 1501 1501 1501 1501 1502 1502 1502 1502 1503 1504 1505 1505 1506 1506 1507 1508 1509 1509 1509 1509 1510 1510 1511 1510 1510 1510 1510 1510 1510 1510 1510 1510 1510 1510
1509 1510 1510 1510 1509 1509 1509 1509 1509 1509 1509 1509 1508 1508 1507 1506 1506 1505 1504 1504 1503 1503 1502 1502 1501 1501 1501 1501 1500 1500 1499 1499 1499 1498 1498 1499 1499 1500 1500 1501 1501 1501 1501 1502 1502 1503 1504 1504 1504 1505 1506 1506 1507 1508 1509 1510 1510 1509 1509 1508 1508 1508 1508 1508 1508 1508 1508 1507 1507
1508 1508 1508 1508 1508 1507 1507 1507 1507 1507 1507 1507 1506 1506 1506 1505 1504 1503 1503 1502 1502 1501 1501 1500 1500 1500 1499 1499 1499 1498 1498 1497 1497 1497 1497 1497 1498 1498 1499 1499 1499 1499 1500 1500 1501 1501 1502 1502 1503 1503 1504 1505 1506 1506 1507 1508 1508 1507 1507 1507 1506 1506 1506 1506 1506 1506 1506 1505 1505
1507 1507 1506 1506 1506 1506 1506 1505 1505 1505 1505 1505 1505 1504 1504 1503 1503 1502 1501 1501 1501 1500 1499 1499 1498 1498 1498 1497 1497 1497 1497 1496 1496 1496 1496 1496 1497 1497 1498 1498 1498 1498 1499 1499 1499 1499 1500 1501 1501 1501 1502 1503 1504 1505 1505 1506 1506 1505 1505 1505 1505 1505 1505 1505 1504 1504 1503 1503 1503
1506 1506 1506 1506 1505 1505 1505 1504 1504 1504 1503 1503 1503 1502 1502 1502 1501 1501 1500 1500 1499 1499 1498 1498 1497 1497 1496 1496 1496 1496 1496 1496 1496 1496 1496 1496 1496 1497 1497 1497 1497 1498 1498 1498 1498 1498 1498 1499 1499 1500 1501 1501 1502 1502 1503 1503 1503 1503 1503 1503 1503 1503 1502 1502 1502 1501 1501 1501 1501
1505 1505 1505 1505 1504 1504 1504 1503 1503 1503 1502 1502 1501 1501 1501 1501 1500 1500 1499 1499 1498 1498 1497 1497 1496 1496 1496 1496 1496 1495 1495 1495 1495 1495 1495 1496 1496 1496 1497 1497 1497 1497 1497 1498 1497 1497 1497 1497 1498 1498 1499 1499 1500 1500 1501 1501 1501 1501 1501 1501 1500 1500 1500 1499 1499 1499 1499 1500 1500
1504 1504 1504 1504 1503 1503 1503 1502 1502 1501 1501 1501 1501 1500 1500 1500 1499 1498 1498 1497 1497 1496 1496 1496 1495 1495 1495 1495 1495 1495 1495 1494 1494 1494 1495 1495 1495 1496 1496 1496 1496 1496 1496 1496 1496 1496 1496 1496 1496 1496 1497 1497 1497 1498 1498 1498 1498 1498 1498 1498 1497 1497 1497 1497 1497 1497 1498 1498 1498
1503 1503 1503 1502 1502 1502 1501 1501 1501 1501 1500 1500 1499 1499 1499 1498 1498 1497 1497 1496 1496 1496 1495 1495 1494 1494 1494 1494 1494 1494 1494 1494 1494 1494 1494 1494 1494 1494 1494 1494 1495 1495 1495 1495 1495 1494 1494 1494 1494 1494 1495 1495 1495 1495 1496 1496 1496 1496 1496 1496 1495 1495 1495 1495 1495 1496 1496 1496 1496
1502 1502 1502 1501 1501 1501 1501 1500 1500 1499 1499 1498 1498 1498 1497 1497 1496 1496 1495 1495 1495 1494 1494 1494 1493 1493 1493 1493 1493 1493 1493 1493 1493 1493 1493 1493 1493 1493 1493 1493 1493 1493 1493 1493 1493 1493 1493 1493 1493 1493 1493 1493 1493 1493 1493 1493 1494 1494 1494 1493 1493 1493 1493 1494 1494 1494 1494 1494 1494
1501 1501 1501 1501 1500 1500 1500 1499 1499 1498 1498 1497 1497 1496 1496 1495 1495 1494 1494 1493 1493 1492 1492 1492 1492 1492 1491 1491 1491 1491 1491 1492 1492 1492 1492 1492 1492 1492 1492 1492 1492 1492 1492 1491 1491 1491 1491 1491 1491 1491 1491 1491 1491 1491 1491 1491 1491 1491 1492 1492 1492 1492 1492 1492 1492 1492 1492 1492 1492
1501 1500 1500 1500 1499 1499 1499 1498 1498 1497 1497 1496 1496 1496 1495 1494 1494 1493 1492 1492 1491 1491 1491 1491 1490 1490 1490 1490 1490 1490 1490 1490 1490 1490 1490 1490 1490 1490 1490 1490 1491 1491 1491 1490 1490 1490 1490 1490 1490 1490 1490 1490 1490 1490 1490 1490 1490 1490 1490 1490 1490 1490 1490 1490 1490 1490 1490 1490 1490
1500 1499 1499 1499 1498 1498 1497 1497 1496 1496 1496 1495 1495 1494 1494 1493 1493 1492 1491 1491 1490 1489 1489 1489 1488 1488 1488 1488 1488 1488 1487 1487 1487 1487 1487 1487 1488 1488 1488 1488 1488 1488 1488 1488 1488 1488 1488 1488 1487 1487 1487 1487 1487 1487 1487 1488 1488 1488 1488 1488 1488 1487 1487 1487 1487 1487 1487 1487 1487
1499 1498 1498 1498 1497 1497 1496 1496 1495 1495 1494 1494 1493 1493 1492 1492 1491 1491 1490 1490 1489 1488 1488 1487 1486 1486 1486 1486 1486 1486 1486 1485 1485 1485 1485 1485 1485 1485 1485 1485 1486 1486 1486 1486 1486 1486 1486 1486 1486 1486 1485 1485 1485 1485 1485 1486 1486 1486 1486 1486 1486 1485 1485 1485 1485 1485 1485 1485 1485
1498 1497 1497 1496 1496 1496 1495 1495 1494 1493 1493 1492 1492 1491 1491 1490 1490 1490 1489 1488 1488 1487 1486 1486 1485 1485 1484 1484 1484 1484 1484 1483 1483 1483 1483 1482 1482 1482 1482 1482 1483 1483 1483 1483 1483 1483 1483 1483 1483 1483 1483 1483 1483 1483 1483 1483 1483 1483 1483 1483 1483 1483 1483 1483 1482 1482 1482 1482 1481
1496 1496 1496 1495 1495 1494 1494 1493 1493 1492 1491 1491 1490 1490 1489 1488 1488 1488 1487 1487 1486 1486 1486 1485 1484 1483 1483 1482 1482 1482 1481 1481 1481 1481 1481 1481 1481 1480 1480 1480 1480 1480 1480 1481 1481 1481 1481 1481 1481 1481 1481 1480 1480 1480 1481 1481 1481 1481 1481 1481 1481 1481 1481 1481 1480 1480 1479 1479 1479
1495 1494 1494 1494 1493 1493 1492 1491 1491 1491 1490 1489 1489 1488 1487 1487 1486 1486 1485 1485 1485 1484 1484 1483 1483 1482 1481 1481 1481 1480 1480 1479 1479 1479 1479 1478 1478 1478 1478 1478 1478 1478 1478 1478 1478 1478 1478 1478 1478 1478 1478 1478 1478 1478 1478 1478 1478 1478 1478 1478 1478 1478 1478 1478 1478 1477 1477 1476 1476
1493 1493 1492 1492 1491 1491 1491 1490 1489 1489 1488 1488 1487 1486 1486 1485 1485 1484 1483 1483 1483 1482 1482 1481 1481 1481 1480 1479 1479 1478 1478 1477 1477 1477 1476 1476 1476 1476 1476 1476 1476 1476 1476 1476 1476 1476 1476 1476 1476 1476 1475 1475 1475 1475 1476 1476 1476 1476 1476 1476 1476 1476 1476 1475 1475 1475 1474 1474 1474
1491 1491 1490 1490 1490 1489 1489 1488 1488 1487 1486 1486 1485 1485 1484 1484 1483 1482 1481 1481 1481 1480 1480 1479 1479 1478 1478 1477 1477 1476 1476 1476 1475 1475 1474 1474 1474 1474 1473 1473 1473 1473 1473 1473 1473 1473 1473 1473 1473 1473 1473 1473 1473 1473 1473 1473 1473 1473 1473 1473 1473 1473 1473 1472 1472 1472 1472 1472 1472
1490 1489 1489 1488 1488 1487 1487 1486 1486 1485 1485 1484 1483 1483 1482 1482 1481 1480 1480 1479 1479 1478 1477 1477 1476 1476 1476 1476 1475 1475 1474 1474 1473 1473 1472 1472 1472 1471 1471 1471 1471 1471 1471 1471 1471 1471 1471 1471 1471 1471 1470 1470 1470 1470 1471 1471 1471 1471 1470 1470 1470 1470 1470 1470 1470 1470 1470 1470 1470
1488 1488 1487 1487 1486 1486 1485 1485 1484 1483 1483 1482 1481 1481 1480 1480 1479 1478 1478 1477 1476 1476 1475 1475 1474 1474 1474 1473 1473 1472 1472 1471 1471 1471 1470 1470 1470 1469 1469 1469 1469 1468 1468 1468 1468 1468 1468 1468 1468 1468 1468 1468 1468 1468 1468 1468 1468 1468 1468 1467 1467 1467 1467 1467 1467 1467 1467 1467 1467
1487 1487 1486 1486 1485 1484 1484 1483 1482 1482 1481 1481 1480 1479 1479 1478 1477 1476 1476 1475 1475 1474 1473 1473 1472 1472 1471 1471 1471 1470 1470 1469 1469 1468 1468 1468 1467 1467 1467 1467 1466 1466 1466 1466 1466 1466 1465 1465 1465 1465 1465 1465 1465 1465 1465 1465 1465 1465 1465 1465 1465 1465 1465 1465 1465 1465 1465 1465 1465
1486 1486 1485 1485 1484 1483 1483 1482 1481 1481 1480 1479 1478 1478 1477 1476 1476 1475 1474 1473 1473 1472 1471 1471 1470 1470 1469 1469 1468 1468 1467 1467 1466 1466 1466 1466 1465 1465 1465 1465 1464 1464 1463 1463 1463 1463 1463 1463 1463 1463 1463 1463 1462 1462 1462 1462 1462 1462 1462 1462 1462 1462 1462 1462 1462 1462 1462 1462 1462
1486 1485 1484 1484 1483 1482 1481 1481 1480 1479 1478 1478 1477 1476 1475 1475 1474 1473 1472 1471 1471 1470 1470 1469 1468 1468 1467 1467 1466 1466 1465 1465 1464 1464 1463 1463 1463 1463 1462 1462 1462 1461 1461 1461 1461 1461 1461 1460 1460 1460 1460 1460 1460 1460 1460 1460 1460 1460 1460 1460 1460 1460 1460 1460 1460 1460 1460 1460 1460
1484 1484 1483 1482 1482 1481 1480 1479 1479 1478 1477 1476 1475 1475 1474 1473 1472 1471 1471 1470 1469 1468 1468 1467 1466 1466 1465 1465 1464 1464 1463 1462 1462 1461 1461 1461 1461 1461 1460 1460 1460 1459 1459 1459 1458 1458 1458 1458 1458 1458 1458 1458 1458 1458 1458 1458 1458 1458 1458 1458 1457 1457 1457 1457 1457 1457 1457 1457 1457
1483 1482 1481 1481 1480 1480 1479 1478 1477 1476 1475 1475 1474 1473 1472 1471 1471 1470 1469 1468 1467 1467 1466 1465 1464 1464 1463 1462 1462 1461 1461 1460 1460 1459 1459 1459 1458 1458 1458 1457 1457 1457 1456 1456 1456 1456 1456 1456 1456 1456 1456 1456 1455 1455 1455 1456 1456 1456 1456 1455 1455 1455 1455 1455 1455 1455 1455 1455 1455
1481 1480 1480 1479 1478 1478 1477 1476 1475 1474 1473 1473 1472 1471 1470 1470 1469 1468 1467 1466 1466 1465 1464 1463 1462 1461 1461 1460 1460 1459 1458 1458 1458 1457 1457 1456 1456 1456 1456 1455 1455 1455 1454 1454 1454 1454 1454 1454 1454 1453 1453 1453 1453 1453 1453 1453 1453 1453 1453 1453 1453 1453 1453 1452 1452 1452 1452 1452 1452
1478 1478 1477 1476 1476 1475 1475 1474 1473 1472 1471 1471 1470 1469 1468 1467 1467 1466 1465 1464 1463 1463 1462 1461 1460 1459 1459 1458 1457 1456 1456 1456 1456 1455 1454 1454 1454 1453 1453 1453 1452 1452 1452 1452 1452 1452 1452 1452 1451 1451 1451 1451 1451 1451 1451 1451 1451 1451 1451 1451 1451 1450 1450 1450 1450 1450 1450 1450 1450
1476 1475 1474 1474 1473 1472 1472 1471 1470 1469 1469 1468 1467 1466 1466 1465 1464 1464 1463 1462 1461 1461 1460 1459 1458 1457 1456 1456 1455 1454 1454 1454 1453 1452 1452 1451 1451 1451 1451 1450 1450 1450 1450 1450 1450 1450 1450 1450 1450 1449 1449 1449 1449 1449 1449 1449 1448 1448 1448 1448 1448 1448 1448 1448 1448 1448 1448 1448 1447
1473 1472 1471 1471 1470 1469 1469 1468 1467 1466 1466 1465 1464 1464 1463 1462 1462 1461 1460 1460 1459 1458 1457 1456 1456 1455 1454 1453 1453 1452 1451 1451 1451 1450 1449 1449 1448 1448 1448 1448 1448 1448 1447 1448 1448 1448 1448 1447 1447 1447 1447 1447 1447 1447 1446 1446 1446 1446 1446 1446 1446 1446 1446 1446 1446 1446 1446 1446 1445
1470 1470 1469 1468 1467 1466 1466 1465 1464 1463 1462 1461 1461 1460 1460 1459 1459 1458 1457 1457 1456 1455 1455 1454 1453 1452 1451 1451 1451 1450 1449 1448 1448 1447 1447 1446 1446 1446 1446 1446 1446 1445 1445 1445 1446 1446 1445 1445 1445 1445 1445 1445 1445 1445 1444 1444 1444 1444 1444 1444 1443 1443 1443 1443 1443 1443 1443 1443 1443
1468 1467 1466 1465 1465 1464 1463 1462 1461 1460 1459 1458 1458 1457 1456 1456 1456 1455 1454 1454 1453 1452 1451 1451 1450 1450 1449 1448 1448 1447 1446 1446 1445 1445 1444 1444 1443 1443 1443 1443 1443 1443 1443 1443 1443 1443 1443 1443 1443 1443 1443 1443 1443 1443 1442 1442 1442 1442 1441 1441 1441 1441 1441 1441 1441 1441 1441 1441 1441
1466 1465 1464 1463 1462 1461 1461 1460 1459 1458 1457 1456 1455 1454 1453 1453 1452 1452 1451 1451 1450 1449 1449 1448 1447 1447 1446 1446 1445 1445 1444 1443 1443 1442 1442 1441 1441 1441 1441 1440 1440 1440 1440 1441 1441 1441 1441 1441 1441 1441 1441 1441 1441 1441 1440 1440 1440 1439 1439 1439 1439 1439 1439 1439 1439 1439 1439 1439 1439
1464 1463 1462 1461 1460 1459 1459 1458 1457 1456 1455 1453 1452 1451 1451 1450 1449 1448 1448 1447 1447 1446 1446 1445 1445 1444 1443 1443 1442 1442 1441 1441 1440 1440 1439 1439 1439 1438 1438 1437 1437 1437 1437 1438 1438 1438 1438 1438 1438 1438 1438 1438 1438 1438 1438 1438 1437 1437 1437 1437 1437 1437 1436 1436 1437 1437 1437 1437 1436
1462 1461 1460 1459 1458 1457 1456 1455 1454 1453 1452 1451 1450 1449 1448 1447 1446 1445 1445 1444 1443 1443 1442 1442 1441 1441 1440 1440 1439 1439 1438 1438 1437 1437 1437 1436 1436 1435 1435 1434 1434 1435 1435 1436 1436 1436 1436 1436 1436 1436 1436 1436 1436 1435 1435 1435 1435 1435 1435 1435 1435 1435 1435 1435 1435 1435 1435 1435 1435
1460 1459 1458 1457 1456 1455 1454 1453 1452 1451 1450 1449 1448 1447 1446 1445 1444 1443 1442 1441 1440 1439 1439 1438 1438 1438 1437 1437 1436 1436 1436 1435 1435 1434 1434 1433 1433 1432 1432 1431 1431 1432 1432 1433 1433 1433 1433 1433 1433 1433 1433 1433 1433 1432 1432 1432 1432 1432 1432 1432 1432 1432 1432 1432 1432 1432 1432 1432 1433
1458 1456 1455 1454 1453 1452 1451 1451 1450 1448 1447 1446 1446 1444 1443 1442 1441 1440 1439 1438 1437 1436 1435 1435 1435 1435 1434 1434 1433 1433 1432 1432 1432 1431 1431 1431 1430 1430 1429 1429 1429 1429 1430 1430 1430 1430 1430 1430 1430 1430 1430 1430 1430 1430 1430 1430 1430 1430 1430 1430 1430 1430 1430 1430 1430 1430 1430 1431 1431
1455 1454 1453 1451 1451 1450 1449 1448 1447 1446 1445 1444 1443 1442 1441 1440 1438 1437 1436 1435 1434 1432 1432 1431 1431 1431 1431 1431 1430 1430 1429 1429 1429 1428 1428 1427 1427 1427 1426 1426 1426 1426 1427 1427 1427 1427 1427 1427 1427 1427 1427 1427 1427 1427 1427 1427 1427 1427 1428 1428 1428 1428 1428 1428 1428 1428 1428 1428 1429
1453 1451 1450 1449 1448 1447 1446 1445 1444 1443 1442 1441 1440 1439 1438 1437 1436 1434 1433 1432 1431 1430 1429 1428 1427 1427 1427 1427 1427 1426 1426 1426 1426 1425 1425 1424 1424 1424 1424 1423 1423 1423 1424 1424 1425 1425 1425 1425 1425 1425 1425 1425 1424 1424 1424 1424 1425 1425 1425 1426 1426 1426 1426 1426 1426 1426 1426 1426 1427
1450 1449 1447 1446 1445 1444 1443 1442 1441 1440 1439 1438 1437 1436 1435 1434 1432 1431 1430 1429 1428 1427 1426 1425 1424 1424 1424 1424 1423 1422 1422 1422 1422 1422 1422 1421 1421 1421 1421 1421 1420 1420 1421 1421 1421 1421 1421 1421 1421 1422 1422 1422 1422 1421 1421 1421 1421 1422 1422 1423 1423 1423 1423 1423 1424 1424 1424 1425 1425
1447 1446 1445 1444 1442 1441 1440 1439 1438 1437 1436 1435 1434 1433 1432 1431 1429 1428 1427 1426 1425 1423 1422 1421 1421 1421 1420 1420 1419 1419 1418 1418 1418 1418 1418 1418 1418 1418 1417 1417 1417 1417 1417 1417 1418 1418 1418 1418 1418 1419 1419 1419 1419 1419 1419 1419 1419 1419 1420 1420 1421 1421 1421 1421 1421 1422 1422 1422 1423